Flag for Indonesia Weather past 2 weeks in Gorontalo, Gorontalo, Indonesia

84 °F

Light rain. Scattered clouds.

Feels Like: 94 °F
Forecast: 74 / 92 °F
Wind: 2 mph from North

Location: Menado / Dr. Sam Ratulangi

Current Time: Nov 29, 2015 at 1:41:45 PM

Latest Report: Nov 29, 2015 at 1:00 PM

Visibility: 5 mi

Pressure: 29.83 "Hg

Humidity: 79%

Dew point: 77 °F

Location of GorontaloLocation

Historic Weather in Gorontalo — Graph


Gorontalo temperature yesterday

Maximum temperature yesterday: 91 °F (at 12:30 PM)
Minimum temperature yesterday: 75 °F (at 12:00 AM)
Average temperature yesterday: 81 °F

Past Weeks' High & Low Weather Summary

High95 °F (Nov 24, 10:30 AM)100% (Nov 14, 11:00 PM)29.92 "Hg (Nov 14, 11:00 PM)
Low73 °F (Nov 16, 2:00 AM)49% (Nov 16, 2:00 PM)29.71 "Hg (Nov 21, 3:00 PM)
Average81 °F84%29.81 "Hg
* Reported Nov 14 12:00 Noon — Nov 29 12:30 PM, Gorontalo, Weather by CustomWeather, © 2015

Note: Actual official high and low records may vary slightly from our data, if they occured in-between our weather recording intervals... More about our weather records


Gorontalo weather history for previous 24 hours

Time TempWeatherWind HumidityBarometerVisibility
12:30 PM
Sun, Nov 29
84 °FLight rain. Scattered clouds.6 mph79%29.83 "Hg5 mi
12:00 PM88 °FScattered clouds.6 mph70%29.83 "Hg6 mi
11:30 AM84 °FLight rain. Scattered clouds.6 mph79%29.86 "Hg5 mi
11:00 AM84 °FLight rain. Scattered clouds.5 mph74%29.86 "Hg5 mi
10:30 AM86 °FScattered clouds.6 mph70%29.89 "Hg6 mi
10:00 AM88 °FScattered clouds.6 mph62%29.89 "Hg6 mi
9:30 AM88 °FScattered clouds.6 mph70%29.89 "Hg6 mi
9:00 AM88 °FScattered clouds.2 mph70%29.89 "Hg6 mi
8:30 AM88 °FPassing clouds.2 mph70%29.89 "Hg6 mi
8:00 AM84 °FPassing clouds.1 mph74%29.92 "Hg6 mi
7:30 AM86 °FPassing clouds.2 mph75%29.89 "HgN/A
7:00 AM82 °FPassing clouds.2 mph79%29.89 "HgN/A
6:30 AM79 °FPassing clouds.2 mph89%29.89 "HgN/A
6:00 AM75 °FPassing clouds.3 mph94%29.89 "HgN/A
5:30 AM75 °FPassing clouds.2 mph94%29.89 "Hg6 mi
4:30 AM75 °FPassing clouds.2 mph94%29.89 "Hg6 mi
3:00 AM75 °FPassing clouds.2 mph94%29.86 "Hg6 mi
2:00 AM75 °FPassing clouds.2 mph94%29.86 "Hg6 mi
1:30 AM75 °FPassing clouds.2 mph94%29.86 "Hg6 mi
1:00 AM75 °FPassing clouds.2 mph94%29.86 "Hg6 mi
12:30 AM77 °FPassing clouds.3 mph89%29.89 "Hg6 mi
12:00 AM77 °FPassing clouds.1 mph94%29.89 "Hg6 mi
11:30 PM
Sat, Nov 28
77 °FPassing clouds.2 mph94%29.89 "Hg6 mi
11:00 PM77 °FPassing clouds.1 mph89%29.89 "Hg6 mi
10:30 PM77 °FPassing clouds.2 mph94%29.89 "Hg6 mi
10:00 PM77 °FPassing clouds.2 mph94%29.89 "Hg6 mi
9:30 PM77 °FPassing clouds.2 mph94%29.89 "Hg6 mi
9:00 PM77 °FPassing clouds.2 mph94%29.89 "Hg6 mi
8:30 PM77 °FPassing clouds.2 mph94%29.89 "Hg5 mi
8:00 PM77 °FPassing clouds.1 mph94%29.89 "Hg5 mi
7:30 PM79 °FPassing clouds.No wind89%29.86 "Hg5 mi
7:00 PM79 °FPassing clouds.2 mph89%29.86 "Hg5 mi
6:30 PM79 °FPassing clouds.2 mph89%29.86 "Hg6 mi
6:00 PM79 °FPassing clouds.2 mph89%29.83 "Hg6 mi
5:30 PM79 °FPassing clouds.2 mph89%29.83 "Hg6 mi
5:00 PM81 °FPassing clouds.6 mph84%29.83 "Hg6 mi
4:30 PM84 °FPassing clouds.3 mph74%29.80 "Hg6 mi
4:00 PM86 °FScattered clouds.8 mph66%29.80 "Hg6 mi
3:30 PM86 °FRain. Scattered clouds.9 mph70%29.77 "HgN/A
3:00 PM86 °FScattered clouds.7 mph70%29.77 "HgN/A
2:00 PM90 °FScattered clouds.5 mph71%29.80 "HgN/A
1:30 PM88 °FScattered clouds.7 mph70%29.80 "HgN/A
1:00 PM91 °FScattered clouds.6 mph56%29.80 "HgN/A
Weather by CustomWeather, © 2015

See weather overviewHow to use our weather pages